COSMOS 1275 DEB

Satellite information

Favourite Embed

Satellite Type and Status

DEBRISIN ORBIT

Key statistics

Satellite COSMOS 1275 DEB at a glance.

Uptime

16167

Days in orbit

Revolutions

≈ 14.2

Per day

Orbit

LEO

Low Earth Orbit

Inclination

82.8

Latest

Satellite identification and parameters

Extended collection of information and parameters for COSMOS 1275 DEB.

Object identification

Identified? True

Debris? True

Object name: COSMOS 1275 DEB

International designator: 1981-053PH

Object number (NORAD): 42097

Object ID (CCSDS): 42097

Country: COMMONWEALTH OF INDEPENDENT STATES (CIS)

Current information (Y/N): Y

RCS size: SMALL

Orbital parameters

Period: 101.121 minutes

Inclination: 82.8029 deg

SMA: 7189.879 km

Apoapsis: 855.021 km

Periapsis: 768.467 km

RAAN: 230.3292 deg

Eccentricy: 0.00601913

Argument of periapsis: 99.4571 deg

Mean anomaly: 261.3423 deg

Mean motion: 14.24034006 rev/day

Mean motion (dot): 0.00005431 rev/day2

B* drag term: 0.0023132274 1/REarth

Two-line elements (TLE)

Creation date: Sept. 8, 2025, 3:16 a.m.

Reference frame: TEME

Reference center: EARTH

Epoch: Sept. 7, 2025, 4:55 p.m. UTC

TLE line 0: 0 COSMOS 1275 DEB

TLE line 1: 1 42097U 81053PH 25250.70552255 .00005431 00000-0 23132-2 0 9990

TLE line 2: 2 42097 82.8029 230.3292 0060191 99.4571 261.3423 14.24034006150579

Live tracking on map

Real-time ground track for satellite COSMOS 1275 DEB.

In-orbit conjunctions

A list of the most updated potential collisions computed for object COSMOS 1275 DEB.

Target Orbit TCA Probability of collision Miss distance Type
THORAD AGENA D DEB SSO 2024-08-02 05:03:17 0.0001896683 66.0 (m) DEBRIS

Associated space launch

Navigation satellite providing location information for the Tsiklon-B navigation system

COSMOS 1275 DEB was lifted into orbit during the mission ‘Kosmos-3M | Parus 27’, on board a Kosmos-3M space rocket.

The launch took place on June 4, 1981, 3:41 p.m. from 132/2.

For more information about the launch, click the button.

Launch to space Kosmos-3M | Parus 27
Kosmos-3M | Parus 27

Agency: N/A

Status: Launch Successful

Launch date: June 4, 1981, 3:41 p.m. UTC

Rocket: Kosmos-3M

Launch pad: 132/2

Location: Plesetsk Cosmodrome, Russian Federation

...

Latest news about this satellite

There are no fresh news available about this satellite. Check back as we update our databases every day.


Newsletter sign-up

Weekly statistics, charts and insights to help you stay on top of the space industry.